| time (UTC) | temp F | wind direction | speed MPH | gust MPH | rain 1hr in | rain 24hr in | rain mn in | humidity % | barometer mb |
| 20260903123329 | 63 | 241 | 1.0 | 3.0 | 0.00 | 0.16 | 0.13 | 99 | 1012.4 |
| 20260903122818 | 63 | 241 | 1.0 | 3.0 | 0.00 | 0.16 | 0.13 | 99 | 1012.5 |
| 20260903122313 | 62 | 242 | 1.0 | 3.0 | 0.00 | 0.16 | 0.13 | 99 | 1012.5 |
| 20260903121807 | 62 | 242 | 2.0 | 4.0 | 0.00 | 0.16 | 0.13 | 99 | 1012.4 |
| 20260903121256 | 62 | 242 | 2.0 | 4.0 | 0.00 | 0.16 | 0.13 | 99 | 1012.4 |
| 20260903120750 | 62 | 236 | 2.0 | 4.0 | 0.00 | 0.16 | 0.13 | 99 | 1012.5 |
| 20260903120512 | 61 | 236 | 2.0 | 4.0 | 0.00 | 0.16 | 0.13 | 99 | 1012.5 |
| 20260903115734 | 61 | 236 | 2.0 | 3.0 | 0.00 | 0.16 | 0.13 | 99 | 1012.5 |
| 20260903115228 | 61 | 236 | 2.0 | 3.0 | 0.00 | 0.16 | 0.13 | 99 | 1012.4 |
| 20260903114723 | 61 | 236 | 2.0 | 3.0 | 0.00 | 0.16 | 0.13 | 99 | 1012.4 |
| 20260903114223 | 61 | 236 | 1.0 | 3.0 | 0.00 | 0.16 | 0.13 | 99 | 1012.4 |
| 20260903113722 | 61 | 236 | 1.0 | 2.0 | 0.00 | 0.16 | 0.13 | 99 | 1012.5 |
| 20260903113223 | 61 | 236 | 1.0 | 2.0 | 0.00 | 0.16 | 0.13 | 99 | 1012.4 |
| 20260903112721 | 61 | 236 | 1.0 | 2.0 | 0.00 | 0.16 | 0.13 | 99 | 1012.5 |
| 20260903112220 | 61 | 236 | 0.0 | 2.0 | 0.00 | 0.16 | 0.13 | 99 | 1012.5 |
| 20260903111720 | 61 | 236 | 0.0 | 1.0 | 0.00 | 0.16 | 0.13 | 99 | 1012.5 |
| 20260903111222 | 61 | 236 | 0.0 | 1.0 | 0.00 | 0.16 | 0.13 | 99 | 1012.5 |
| 20260903110719 | 61 | 236 | 0.0 | 2.0 | 0.00 | 0.16 | 0.13 | 99 | 1012.5 |
| 20260903110440 | 61 | 236 | 0.0 | 2.0 | 0.00 | 0.16 | 0.13 | 99 | 1012.5 |
| 20260903105717 | 61 | 236 | 1.0 | 2.0 | 0.00 | 0.16 | 0.13 | 99 | 1012.4 |
| 20260903105217 | 61 | 236 | 1.0 | 2.0 | 0.00 | 0.16 | 0.13 | 99 | 1012.4 |
| 20260903104714 | 60 | 235 | 1.0 | 2.0 | 0.00 | 0.16 | 0.13 | 99 | 1012.4 |
| 20260903104205 | 60 | 235 | 1.0 | 2.0 | 0.00 | 0.16 | 0.13 | 99 | 1012.4 |
| 20260903103929 | 60 | 235 | 1.0 | 2.0 | 0.00 | 0.16 | 0.13 | 99 | 1012.4 |
| 20260903103205 | 60 | 235 | 1.0 | 2.0 | 0.00 | 0.16 | 0.13 | 99 | 1012.2 |
| 20260903102702 | 60 | 235 | 1.0 | 3.0 | 0.00 | 0.16 | 0.13 | 99 | 1012.2 |
| 20260903102203 | 60 | 235 | 1.0 | 3.0 | 0.00 | 0.16 | 0.13 | 99 | 1012.2 |
| 20260903101924 | 60 | 235 | 2.0 | 3.0 | 0.00 | 0.16 | 0.13 | 99 | 1012.4 |
| 20260903101202 | 60 | 235 | 2.0 | 4.0 | 0.00 | 0.16 | 0.13 | 99 | 1012.4 |
| 20260903100702 | 60 | 235 | 3.0 | 4.0 | 0.00 | 0.16 | 0.13 | 99 | 1012.4 |
| 20260903100204 | 60 | 235 | 3.0 | 5.0 | 0.00 | 0.16 | 0.13 | 99 | 1012.4 |
| 20260903095659 | 60 | 244 | 2.0 | 5.0 | 0.00 | 0.16 | 0.13 | 99 | 1012.5 |
| 20260903095200 | 60 | 244 | 2.0 | 4.0 | 0.00 | 0.16 | 0.13 | 99 | 1012.2 |
| 20260903094923 | 60 | 245 | 2.0 | 3.0 | 0.00 | 0.16 | 0.13 | 99 | 1012.2 |
| 20260903094158 | 60 | 246 | 1.0 | 3.0 | 0.00 | 0.16 | 0.13 | 99 | 1012.2 |
| 20260903093659 | 60 | 246 | 1.0 | 3.0 | 0.00 | 0.16 | 0.13 | 99 | 1012.1 |
| 20260903092658 | 60 | 246 | 1.0 | 3.0 | 0.00 | 0.16 | 0.13 | 99 | 1012.2 |
| 20260903092159 | 60 | 246 | 1.0 | 3.0 | 0.00 | 0.16 | 0.13 | 99 | 1012.1 |
| 20260903091654 | 60 | 246 | 1.0 | 3.0 | 0.00 | 0.16 | 0.13 | 99 | 1012.1 |
| 20260903090654 | 60 | 246 | 2.0 | 4.0 | 0.00 | 0.16 | 0.13 | 99 | 1012.1 |
| 20260903090154 | 60 | 247 | 2.0 | 4.0 | 0.00 | 0.16 | 0.13 | 99 | 1012.1 |
| 20260903085654 | 60 | 236 | 1.0 | 3.0 | 0.00 | 0.16 | 0.13 | 99 | 1012.1 |
| 20260903085153 | 60 | 236 | 1.0 | 2.0 | 0.00 | 0.16 | 0.13 | 99 | 1012.1 |
| 20260903084654 | 60 | 237 | 1.0 | 3.0 | 0.00 | 0.16 | 0.13 | 99 | 1012.2 |
| 20260903084151 | 60 | 236 | 2.0 | 3.0 | 0.00 | 0.16 | 0.13 | 99 | 1012.4 |
| 20260903083649 | 60 | 236 | 2.0 | 3.0 | 0.00 | 0.16 | 0.13 | 99 | 1012.2 |
| 20260903083406 | 60 | 237 | 2.0 | 4.0 | 0.00 | 0.16 | 0.13 | 99 | 1012.4 |
| 20260903082645 | 60 | 238 | 2.0 | 4.0 | 0.00 | 0.16 | 0.13 | 99 | 1012.2 |
| 20260903082400 | 60 | 238 | 2.0 | 4.0 | 0.00 | 0.16 | 0.13 | 99 | 1012.5 |
| 20260903081630 | 60 | 238 | 2.0 | 5.0 | 0.00 | 0.16 | 0.13 | 99 | 1012.5 |
| 20260903081130 | 60 | 239 | 2.0 | 5.0 | 0.00 | 0.16 | 0.13 | 99 | 1012.6 |
| 20260903080631 | 60 | 229 | 2.0 | 4.0 | 0.00 | 0.16 | 0.13 | 99 | 1012.5 |
| 20260903080131 | 60 | 222 | 2.0 | 4.0 | 0.00 | 0.16 | 0.13 | 99 | 1012.6 |
| 20260903075630 | 60 | 217 | 2.0 | 4.0 | 0.01 | 0.16 | 0.13 | 99 | 1012.5 |
| 20260903075130 | 60 | 216 | 2.0 | 3.0 | 0.01 | 0.16 | 0.13 | 99 | 1012.6 |
| 20260903074630 | 60 | 215 | 1.0 | 3.0 | 0.01 | 0.16 | 0.13 | 99 | 1012.7 |
| 20260903074130 | 60 | 215 | 1.0 | 3.0 | 0.01 | 0.16 | 0.13 | 99 | 1012.8 |
| 20260903073630 | 60 | 215 | 2.0 | 4.0 | 0.01 | 0.16 | 0.13 | 99 | 1012.9 |
| 20260903073130 | 60 | 207 | 2.0 | 4.0 | 0.01 | 0.16 | 0.13 | 99 | 1012.9 |
| 20260903072629 | 60 | 206 | 2.0 | 4.0 | 0.01 | 0.16 | 0.13 | 99 | 1012.9 |
| 20260903072129 | 60 | 202 | 2.0 | 4.0 | 0.01 | 0.16 | 0.13 | 99 | 1013.0 |
| 20260903071627 | 60 | 202 | 2.0 | 6.0 | 0.01 | 0.16 | 0.13 | 99 | 1012.9 |
| 20260903071126 | 60 | 205 | 2.0 | 6.0 | 0.01 | 0.16 | 0.13 | 99 | 1013.1 |
| 20260903070625 | 60 | 205 | 2.0 | 4.0 | 0.01 | 0.16 | 0.13 | 99 | 1013.0 |
| 20260903070340 | 60 | 215 | 2.0 | 4.0 | 0.02 | 0.16 | 0.13 | 99 | 1013.0 |
| 20260903065612 | 60 | 214 | 2.0 | 4.0 | 0.01 | 0.15 | 0.12 | 99 | 1013.0 |
| 20260903065103 | 60 | 211 | 2.0 | 4.0 | 0.02 | 0.15 | 0.12 | 99 | 1012.9 |
| 20260903064557 | 60 | 211 | 1.0 | 3.0 | 0.02 | 0.15 | 0.12 | 99 | 1012.9 |
| 20260903064051 | 60 | 209 | 1.0 | 4.0 | 0.02 | 0.15 | 0.12 | 99 | 1012.9 |
| 20260903063541 | 60 | 209 | 1.0 | 4.0 | 0.02 | 0.15 | 0.12 | 99 | 1012.9 |
| 20260903063034 | 60 | 209 | 1.0 | 3.0 | 0.03 | 0.15 | 0.12 | 99 | 1012.9 |
| 20260903062529 | 60 | 209 | 1.0 | 2.0 | 0.03 | 0.15 | 0.12 | 99 | 1012.9 |
| 20260903062019 | 60 | 209 | 1.0 | 3.0 | 0.05 | 0.15 | 0.12 | 99 | 1013.1 |
| 20260903061513 | 60 | 207 | 1.0 | 4.0 | 0.07 | 0.15 | 0.12 | 98 | 1013.2 |
| 20260903061231 | 60 | 205 | 2.0 | 6.0 | 0.08 | 0.15 | 0.12 | 98 | 1013.0 |
| 20260903060457 | 60 | 208 | 2.0 | 6.0 | 0.08 | 0.14 | 0.12 | 98 | 1013.2 |
| 20260903055951 | 60 | 215 | 1.0 | 4.0 | 0.09 | 0.14 | 0.11 | 98 | 1013.3 |
| 20260903055446 | 60 | 211 | 1.0 | 4.0 | 0.09 | 0.14 | 0.11 | 98 | 1013.3 |
| 20260903054935 | 60 | 215 | 1.0 | 4.0 | 0.08 | 0.13 | 0.10 | 98 | 1013.4 |
| 20260903054429 | 60 | 207 | 1.0 | 3.0 | 0.08 | 0.13 | 0.10 | 98 | 1013.5 |
| 20260903053923 | 60 | 207 | 1.0 | 4.0 | 0.08 | 0.13 | 0.10 | 98 | 1013.4 |
| 20260903053414 | 60 | 207 | 1.0 | 4.0 | 0.08 | 0.13 | 0.10 | 98 | 1013.3 |
| 20260903052907 | 60 | 217 | 1.0 | 6.0 | 0.07 | 0.12 | 0.09 | 98 | 1013.3 |
| 20260903052401 | 60 | 218 | 2.0 | 6.0 | 0.07 | 0.11 | 0.08 | 98 | 1013.3 |
| 20260903051851 | 60 | 205 | 1.0 | 4.0 | 0.06 | 0.10 | 0.07 | 98 | 1013.5 |
| 20260903051345 | 60 | 190 | 1.0 | 5.0 | 0.04 | 0.08 | 0.05 | 98 | 1013.5 |
| 20260903050839 | 59 | 219 | 2.0 | 5.0 | 0.02 | 0.06 | 0.04 | 98 | 1013.5 |
| 20260903050329 | 59 | 214 | 2.0 | 4.0 | 0.02 | 0.06 | 0.03 | 98 | 1013.6 |
| 20260903045823 | 59 | 207 | 2.0 | 7.0 | 0.02 | 0.05 | 0.02 | 98 | 1013.6 |
| 20260903045317 | 59 | 219 | 2.0 | 7.0 | 0.02 | 0.05 | 0.02 | 98 | 1013.6 |
| 20260903044807 | 59 | 199 | 2.0 | 6.0 | 0.02 | 0.05 | 0.02 | 98 | 1013.4 |
| 20260903044302 | 59 | 181 | 2.0 | 9.0 | 0.02 | 0.05 | 0.02 | 98 | 1013.6 |
| 20260903043755 | 59 | 190 | 3.0 | 9.0 | 0.03 | 0.06 | 0.02 | 98 | 1013.7 |
| 20260903043245 | 59 | 179 | 3.0 | 8.0 | 0.03 | 0.06 | 0.02 | 98 | 1013.7 |
| 20260903042739 | 59 | 211 | 3.0 | 8.0 | 0.03 | 0.06 | 0.02 | 98 | 1013.5 |
| 20260903042451 | 59 | 207 | 3.0 | 7.0 | 0.02 | 0.05 | 0.01 | 98 | 1013.5 |
| 20260903041723 | 59 | 144 | 2.0 | 6.0 | 0.02 | 0.05 | 0.01 | 98 | 1013.6 |
| 20260903041217 | 59 | 205 | 3.0 | 9.0 | 0.02 | 0.06 | 0.01 | 98 | 1013.7 |
| 20260903040932 | 59 | 227 | 3.0 | 9.0 | 0.02 | 0.06 | 0.01 | 98 | 1013.4 |
| 20260903040201 | 59 | 203 | 3.0 | 10.0 | 0.02 | 0.05 | 0.01 | 98 | 1013.5 |
| 20260903035655 | 59 | 284 | 3.0 | 10.0 | 0.02 | 0.05 | 0.05 | 98 | 1013.4 |
| 20260903035149 | 59 | 182 | 3.0 | 9.0 | 0.02 | 0.05 | 0.05 | 98 | 1013.3 |
| 20260903034637 | 59 | 197 | 3.0 | 9.0 | 0.02 | 0.05 | 0.05 | 98 | 1013.4 |
| 20260903034131 | 59 | 184 | 3.0 | 8.0 | 0.02 | 0.05 | 0.05 | 98 | 1013.6 |
| 20260903033625 | 59 | 214 | 2.0 | 6.0 | 0.01 | 0.04 | 0.04 | 98 | 1013.8 |
| 20260903033120 | 59 | 217 | 2.0 | 6.0 | 0.01 | 0.04 | 0.04 | 98 | 1013.9 |
| 20260903032609 | 60 | 148 | 2.0 | 7.0 | 0.01 | 0.04 | 0.04 | 98 | 1013.8 |
| 20260903032103 | 60 | 202 | 2.0 | 7.0 | 0.01 | 0.04 | 0.04 | 98 | 1013.9 |
| 20260903031553 | 60 | 165 | 3.0 | 7.0 | 0.01 | 0.04 | 0.04 | 98 | 1013.8 |
| 20260903031047 | 60 | 228 | 3.0 | 7.0 | 0.02 | 0.04 | 0.04 | 98 | 1013.9 |
| 20260903030541 | 60 | 190 | 3.0 | 7.0 | 0.02 | 0.04 | 0.04 | 98 | 1014.0 |
| 20260903030034 | 60 | 187 | 3.0 | 9.0 | 0.01 | 0.03 | 0.03 | 98 | 1013.8 |
| 20260903025526 | 60 | 117 | 4.0 | 9.0 | 0.01 | 0.03 | 0.03 | 98 | 1014.0 |
| 20260903025240 | 60 | 204 | 3.0 | 9.0 | 0.01 | 0.03 | 0.03 | 98 | 1014.1 |
| 20260903024509 | 60 | 211 | 3.0 | 9.0 | 0.01 | 0.03 | 0.03 | 98 | 1014.4 |
| 20260903024008 | 60 | 211 | 3.0 | 8.0 | 0.01 | 0.03 | 0.03 | 97 | 1014.5 |
| 20260903023733 | 60 | 208 | 4.0 | 10.0 | 0.01 | 0.03 | 0.03 | 97 | 1014.6 |
| 20260903023005 | 60 | 203 | 3.0 | 10.0 | 0.01 | 0.03 | 0.03 | 97 | 1014.7 |
| 20260903022504 | 60 | 140 | 2.0 | 9.0 | 0.01 | 0.03 | 0.03 | 97 | 1014.7 |
| 20260903021223 | 60 | 220 | 3.0 | 9.0 | 0.00 | 0.02 | 0.02 | 97 | 1014.7 |
| 20260903020502 | 60 | 229 | 2.0 | 9.0 | 0.00 | 0.02 | 0.02 | 97 | 1015.0 |
| 20260903020004 | 60 | 235 | 2.0 | 8.0 | 0.00 | 0.02 | 0.02 | 97 | 1014.9 |
| 20260903015225 | 60 | 211 | 3.0 | 6.0 | 0.00 | 0.02 | 0.02 | 97 | 1015.0 |
| 20260903014726 | 60 | 157 | 2.0 | 6.0 | 0.00 | 0.02 | 0.02 | 97 | 1014.7 |
| 20260903014222 | 60 | 119 | 2.0 | 6.0 | 0.00 | 0.02 | 0.02 | 97 | 1014.9 |
| 20260903013500 | 60 | 249 | 3.0 | 7.0 | 0.00 | 0.02 | 0.02 | 96 | 1015.1 |
| 20260903013000 | 60 | 222 | 2.0 | 7.0 | 0.00 | 0.02 | 0.02 | 96 | 1015.4 |
| 20260903012717 | 61 | 242 | 1.0 | 6.0 | 0.00 | 0.02 | 0.02 | 96 | 1015.6 |
| 20260903011956 | 61 | 184 | 2.0 | 6.0 | 0.00 | 0.02 | 0.02 | 96 | 1015.7 |
| 20260903011456 | 61 | 209 | 2.0 | 8.0 | 0.00 | 0.02 | 0.02 | 96 | 1015.8 |
| 20260903010954 | 61 | 192 | 3.0 | 8.0 | 0.00 | 0.02 | 0.02 | 96 | 1015.9 |
| 20260903010454 | 61 | 235 | 3.0 | 7.0 | 0.00 | 0.02 | 0.02 | 96 | 1015.8 |
| 20260903005954 | 61 | 229 | 2.0 | 7.0 | 0.00 | 0.02 | 0.02 | 96 | 1015.9 |
| 20260903005454 | 61 | 209 | 2.0 | 7.0 | 0.00 | 0.02 | 0.02 | 96 | 1015.8 |
| 20260903004954 | 61 | 219 | 4.0 | 8.0 | 0.00 | 0.02 | 0.02 | 96 | 1015.8 |
| 20260903004452 | 61 | 224 | 5.0 | 16.0 | 0.00 | 0.02 | 0.02 | 96 | 1015.8 |
| 20260903003953 | 61 | 224 | 5.0 | 16.0 | 0.00 | 0.02 | 0.02 | 96 | 1015.9 |
| 20260903003452 | 61 | 198 | 5.0 | 13.0 | 0.00 | 0.02 | 0.02 | 96 | 1015.8 |
| 20260903002952 | 61 | 227 | 5.0 | 13.0 | 0.00 | 0.02 | 0.02 | 96 | 1015.8 |
| 20260903002452 | 61 | 300 | 5.0 | 14.0 | 0.00 | 0.02 | 0.02 | 96 | 1015.8 |
| 20260903001951 | 61 | 204 | 5.0 | 14.0 | 0.00 | 0.02 | 0.02 | 96 | 1015.7 |
| 20260903001711 | 61 | 214 | 4.0 | 12.0 | 0.00 | 0.02 | 0.02 | 96 | 1015.5 |
| 20260903000946 | 61 | 182 | 4.0 | 16.0 | 0.00 | 0.02 | 0.02 | 96 | 1015.5 |
| 20260903000446 | 61 | 175 | 5.0 | 16.0 | 0.00 | 0.02 | 0.02 | 96 | 1015.4 |
| 20260902235943 | 61 | 205 | 5.0 | 15.0 | 0.00 | 0.02 | 0.02 | 96 | 1015.3 |
| 20260902235444 | 61 | 211 | 6.0 | 16.0 | 0.00 | 0.02 | 0.02 | 96 | 1015.2 |
| 20260902235209 | 61 | 217 | 5.0 | 16.0 | 0.00 | 0.02 | 0.02 | 96 | 1015.0 |
| 20260902234444 | 61 | 207 | 4.0 | 12.0 | 0.00 | 0.02 | 0.02 | 97 | 1014.9 |
| 20260902233944 | 61 | 175 | 4.0 | 12.0 | 0.00 | 0.02 | 0.02 | 97 | 1015.1 |
| 20260902233441 | 61 | 227 | 4.0 | 12.0 | 0.00 | 0.02 | 0.02 | 97 | 1015.1 |
| 20260902233203 | 61 | 201 | 3.0 | 7.0 | 0.00 | 0.02 | 0.02 | 97 | 1015.1 |
| 20260902232708 | 61 | 214 | 2.0 | 6.0 | 0.00 | 0.02 | 0.02 | 97 | 1015.3 |
| 20260902231939 | 61 | 194 | 2.0 | 8.0 | 0.00 | 0.02 | 0.02 | 97 | 1015.3 |
| 20260902231440 | 61 | 234 | 3.0 | 8.0 | 0.00 | 0.02 | 0.02 | 97 | 1015.5 |
| 20260902230940 | 61 | 189 | 3.0 | 9.0 | 0.00 | 0.02 | 0.02 | 97 | 1015.6 |
| 20260902230439 | 61 | 225 | 3.0 | 9.0 | 0.00 | 0.02 | 0.02 | 97 | 1015.5 |
| 20260902230201 | 61 | 240 | 2.0 | 8.0 | 0.00 | 0.02 | 0.02 | 96 | 1015.5 |
| 20260902225433 | 61 | 175 | 2.0 | 8.0 | 0.00 | 0.02 | 0.02 | 96 | 1015.4 |
| 20260902224928 | 61 | 208 | 2.0 | 7.0 | 0.00 | 0.02 | 0.02 | 96 | 1015.6 |
| 20260902224426 | 61 | 194 | 4.0 | 12.0 | 0.00 | 0.02 | 0.02 | 96 | 1015.7 |
| 20260902223926 | 61 | 204 | 4.0 | 12.0 | 0.00 | 0.02 | 0.02 | 96 | 1015.8 |
| 20260902223426 | 61 | 202 | 4.0 | 11.0 | 0.00 | 0.02 | 0.02 | 96 | 1016.2 |
| 20260902222926 | 61 | 220 | 3.0 | 10.0 | 0.00 | 0.02 | 0.02 | 96 | 1016.1 |
| 20260902222647 | 61 | 180 | 3.0 | 11.0 | 0.00 | 0.02 | 0.02 | 96 | 1015.9 |
| 20260902221926 | 61 | 123 | 4.0 | 11.0 | 0.00 | 0.02 | 0.02 | 96 | 1016.1 |
| 20260902221431 | 61 | 190 | 3.0 | 11.0 | 0.00 | 0.02 | 0.02 | 95 | 1016.6 |
| 20260902220926 | 61 | 210 | 2.0 | 9.0 | 0.00 | 0.02 | 0.02 | 95 | 1016.7 |
| 20260902220426 | 61 | 213 | 2.0 | 12.0 | 0.00 | 0.02 | 0.02 | 95 | 1017.1 |
| 20260902220149 | 61 | 221 | 3.0 | 12.0 | 0.00 | 0.02 | 0.02 | 95 | 1017.2 |
| 20260902215424 | 61 | 243 | 2.0 | 7.0 | 0.00 | 0.02 | 0.02 | 95 | 1017.2 |
| 20260902214923 | 61 | 213 | 2.0 | 7.0 | 0.00 | 0.02 | 0.02 | 95 | 1017.3 |
| 20260902214421 | 61 | 193 | 2.0 | 7.0 | 0.00 | 0.02 | 0.02 | 95 | 1017.5 |
| 20260902213911 | 61 | 126 | 2.0 | 11.0 | 0.00 | 0.02 | 0.02 | 95 | 1017.6 |
| 20260902213412 | 61 | 192 | 1.0 | 11.0 | 0.00 | 0.02 | 0.02 | 95 | 1017.7 |
| 20260902212909 | 61 | 228 | 2.0 | 6.0 | 0.00 | 0.02 | 0.02 | 95 | 1017.8 |
| 20260902212628 | 61 | 180 | 2.0 | 6.0 | 0.00 | 0.02 | 0.02 | 95 | 1017.7 |
| 20260902211909 | 61 | 201 | 2.0 | 5.0 | 0.00 | 0.02 | 0.02 | 95 | 1017.6 |
| 20260902211409 | 61 | 228 | 2.0 | 7.0 | 0.00 | 0.02 | 0.02 | 95 | 1017.4 |
| 20260902210910 | 61 | 228 | 2.0 | 7.0 | 0.00 | 0.02 | 0.02 | 95 | 1017.4 |
| 20260902210634 | 61 | 214 | 3.0 | 7.0 | 0.00 | 0.02 | 0.02 | 95 | 1017.4 |
| 20260902205909 | 61 | 225 | 3.0 | 8.0 | 0.00 | 0.02 | 0.02 | 95 | 1017.4 |
| 20260902205405 | 61 | 173 | 3.0 | 9.0 | 0.00 | 0.02 | 0.02 | 95 | 1017.2 |
| 20260902204405 | 61 | 213 | 4.0 | 12.0 | 0.00 | 0.02 | 0.02 | 95 | 1017.5 |
| 20260902204131 | 61 | 246 | 3.0 | 14.0 | 0.00 | 0.02 | 0.02 | 95 | 1017.5 |
| 20260902203406 | 61 | 217 | 3.0 | 14.0 | 0.00 | 0.02 | 0.02 | 94 | 1017.5 |
| 20260902202905 | 61 | 215 | 3.0 | 9.0 | 0.00 | 0.02 | 0.02 | 94 | 1017.5 |
| 20260902202406 | 61 | 224 | 2.0 | 7.0 | 0.00 | 0.02 | 0.02 | 95 | 1017.4 |
| 20260902201905 | 62 | 207 | 1.0 | 7.0 | 0.00 | 0.02 | 0.02 | 95 | 1017.4 |
| 20260902201628 | 62 | 210 | 2.0 | 8.0 | 0.00 | 0.02 | 0.02 | 95 | 1017.3 |
| 20260902200906 | 62 | 215 | 3.0 | 8.0 | 0.00 | 0.02 | 0.02 | 94 | 1017.5 |
| 20260902200405 | 62 | 211 | 3.0 | 9.0 | 0.00 | 0.02 | 0.02 | 95 | 1017.7 |
| 20260902195905 | 61 | 193 | 3.0 | 9.0 | 0.00 | 0.02 | 0.02 | 96 | 1017.7 |
| 20260902195405 | 61 | 224 | 3.0 | 7.0 | 0.00 | 0.02 | 0.02 | 96 | 1017.8 |
| 20260902195129 | 61 | 232 | 2.0 | 8.0 | 0.00 | 0.02 | 0.02 | 96 | 1017.7 |
| 20260902194627 | 61 | 237 | 3.0 | 10.0 | 0.00 | 0.02 | 0.02 | 96 | 1017.7 |
| 20260902193905 | 61 | 217 | 3.0 | 10.0 | 0.00 | 0.02 | 0.02 | 96 | 1017.7 |
| 20260902193404 | 61 | 198 | 2.0 | 7.0 | 0.00 | 0.02 | 0.02 | 96 | 1017.7 |
| 20260902192905 | 60 | 138 | 2.0 | 7.0 | 0.00 | 0.02 | 0.02 | 97 | 1017.5 |
| 20260902192405 | 60 | 157 | 2.0 | 7.0 | 0.00 | 0.02 | 0.02 | 97 | 1017.7 |
| 20260902191902 | 60 | 211 | 3.0 | 7.0 | 0.00 | 0.02 | 0.02 | 97 | 1017.7 |
| 20260902191400 | 60 | 175 | 3.0 | 8.0 | 0.00 | 0.02 | 0.02 | 97 | 1017.9 |
| 20260902190859 | 60 | 184 | 4.0 | 11.0 | 0.00 | 0.02 | 0.02 | 97 | 1018.0 |
| 20260902190400 | 60 | 227 | 3.0 | 11.0 | 0.00 | 0.02 | 0.02 | 97 | 1018.1 |
| 20260902185859 | 60 | 198 | 2.0 | 7.0 | 0.00 | 0.02 | 0.02 | 97 | 1018.2 |
| 20260902185355 | 60 | 218 | 2.0 | 7.0 | 0.00 | 0.02 | 0.02 | 97 | 1018.2 |
| 20260902184856 | 60 | 220 | 2.0 | 6.0 | 0.00 | 0.02 | 0.02 | 97 | 1018.6 |
| 20260902184353 | 60 | 231 | 3.0 | 6.0 | 0.00 | 0.02 | 0.02 | 97 | 1018.5 |
| 20260902183852 | 59 | 213 | 3.0 | 8.0 | 0.00 | 0.02 | 0.02 | 97 | 1018.5 |
| 20260902183351 | 60 | 252 | 5.0 | 10.0 | 0.00 | 0.02 | 0.02 | 97 | 1018.5 |
| 20260902182852 | 60 | 209 | 5.0 | 10.0 | 0.00 | 0.02 | 0.02 | 97 | 1018.6 |
| 20260902182351 | 60 | 225 | 4.0 | 9.0 | 0.00 | 0.02 | 0.02 | 97 | 1018.6 |
| 20260902181851 | 60 | 172 | 5.0 | 13.0 | 0.00 | 0.02 | 0.02 | 97 | 1018.6 |
| 20260902181612 | 60 | 211 | 5.0 | 13.0 | 0.00 | 0.02 | 0.02 | 97 | 1018.8 |
| 20260902180849 | 60 | 240 | 4.0 | 11.0 | 0.00 | 0.02 | 0.02 | 97 | 1018.7 |
| 20260902180349 | 60 | 209 | 4.0 | 12.0 | 0.00 | 0.02 | 0.02 | 97 | 1018.5 |
| 20260902175849 | 60 | 222 | 4.0 | 12.0 | 0.00 | 0.02 | 0.02 | 98 | 1018.5 |
| 20260902175350 | 60 | 190 | 4.0 | 12.0 | 0.00 | 0.02 | 0.02 | 98 | 1018.6 |
| 20260902174848 | 60 | 221 | 5.0 | 12.0 | 0.00 | 0.02 | 0.02 | 98 | 1018.8 |
| 20260902174347 | 60 | 211 | 5.0 | 14.0 | 0.00 | 0.02 | 0.02 | 98 | 1018.6 |
| 20260902173847 | 59 | 182 | 5.0 | 14.0 | 0.00 | 0.02 | 0.02 | 98 | 1018.5 |
| 20260902173347 | 59 | 190 | 5.0 | 15.0 | 0.00 | 0.02 | 0.02 | 98 | 1018.6 |
| 20260902172848 | 59 | 194 | 6.0 | 15.0 | 0.00 | 0.02 | 0.02 | 98 | 1018.9 |
| 20260902172347 | 59 | 187 | 5.0 | 14.0 | 0.00 | 0.02 | 0.02 | 98 | 1018.8 |
| 20260902171847 | 59 | 201 | 4.0 | 11.0 | 0.00 | 0.02 | 0.02 | 98 | 1018.7 |
| 20260902171348 | 59 | 217 | 4.0 | 9.0 | 0.00 | 0.02 | 0.02 | 98 | 1018.7 |
| 20260902170842 | 59 | 231 | 3.0 | 9.0 | 0.00 | 0.02 | 0.02 | 98 | 1018.7 |
| 20260902170332 | 60 | 231 | 3.0 | 9.0 | 0.00 | 0.02 | 0.02 | 98 | 1018.5 |
| 20260902170048 | 60 | 194 | 3.0 | 9.0 | 0.00 | 0.02 | 0.02 | 98 | 1018.5 |
| 20260902165320 | 60 | 232 | 2.0 | 6.0 | 0.00 | 0.02 | 0.02 | 99 | 1018.5 |
| 20260902164810 | 60 | 122 | 2.0 | 6.0 | 0.00 | 0.02 | 0.02 | 99 | 1018.4 |
| 20260902164305 | 60 | 219 | 2.0 | 8.0 | 0.00 | 0.02 | 0.02 | 99 | 1018.2 |
| 20260902163758 | 60 | 197 | 2.0 | 8.0 | 0.00 | 0.02 | 0.02 | 99 | 1018.2 |
| 20260902163248 | 60 | 205 | 2.0 | 8.0 | 0.00 | 0.02 | 0.02 | 99 | 1018.5 |
| 20260902163005 | 60 | 223 | 2.0 | 8.0 | 0.00 | 0.02 | 0.02 | 99 | 1018.5 |
| 20260902162236 | 60 | 223 | 2.0 | 6.0 | 0.00 | 0.02 | 0.02 | 99 | 1018.6 |
| 20260902161726 | 60 | 213 | 2.0 | 6.0 | 0.00 | 0.02 | 0.02 | 99 | 1018.6 |
| 20260902161220 | 60 | 144 | 3.0 | 10.0 | 0.00 | 0.02 | 0.02 | 99 | 1018.6 |
| 20260902160715 | 60 | 186 | 4.0 | 12.0 | 0.00 | 0.02 | 0.02 | 99 | 1018.7 |
| 20260902160204 | 60 | 234 | 3.0 | 12.0 | 0.00 | 0.02 | 0.02 | 99 | 1018.7 |
| 20260902155928 | 60 | 201 | 2.0 | 6.0 | 0.00 | 0.02 | 0.02 | 99 | 1018.6 |
| 20260902155153 | 60 | 190 | 1.0 | 4.0 | 0.00 | 0.02 | 0.02 | 99 | 1018.7 |
| 20260902154642 | 60 | 193 | 1.0 | 7.0 | 0.00 | 0.02 | 0.02 | 99 | 1018.7 |
| 20260902154136 | 60 | 143 | 1.0 | 7.0 | 0.00 | 0.02 | 0.02 | 99 | 1018.8 |
| 20260902153854 | 60 | 212 | 1.0 | 3.0 | 0.00 | 0.02 | 0.02 | 99 | 1018.7 |
| 20260902153120 | 60 | 226 | 2.0 | 5.0 | 0.00 | 0.02 | 0.02 | 99 | 1018.8 |
| 20260902152614 | 60 | 227 | 2.0 | 5.0 | 0.00 | 0.02 | 0.02 | 99 | 1019.0 |
| 20260902152108 | 60 | 227 | 2.0 | 10.0 | 0.00 | 0.02 | 0.02 | 99 | 1019.0 |
| 20260902151052 | 60 | 209 | 3.0 | 9.0 | 0.00 | 0.02 | 0.02 | 99 | 1019.2 |
| 20260902150545 | 60 | 202 | 3.0 | 9.0 | 0.00 | 0.02 | 0.02 | 99 | 1019.2 |
| 20260902150034 | 60 | 196 | 1.0 | 7.0 | 0.00 | 0.02 | 0.02 | 99 | 1019.2 |
| 20260902145528 | 60 | 126 | 2.0 | 5.0 | 0.00 | 0.02 | 0.02 | 99 | 1019.1 |
| 20260902145023 | 60 | 221 | 3.0 | 7.0 | 0.00 | 0.02 | 0.02 | 99 | 1019.1 |
| 20260902144512 | 60 | 221 | 2.0 | 7.0 | 0.00 | 0.02 | 0.02 | 99 | 1019.2 |
| 20260902144007 | 60 | 219 | 2.0 | 7.0 | 0.00 | 0.02 | 0.02 | 99 | 1019.4 |
| 20260902143500 | 60 | 225 | 2.0 | 6.0 | 0.00 | 0.02 | 0.02 | 99 | 1019.3 |
| 20260902143214 | 60 | 227 | 2.0 | 7.0 | 0.00 | 0.02 | 0.02 | 99 | 1019.4 |
| 20260902142444 | 60 | 181 | 2.0 | 7.0 | 0.00 | 0.02 | 0.02 | 99 | 1019.4 |
| 20260902141939 | 60 | 225 | 2.0 | 4.0 | 0.00 | 0.03 | 0.02 | 99 | 1019.2 |
| 20260902141428 | 60 | 194 | 2.0 | 4.0 | 0.00 | 0.03 | 0.02 | 99 | 1019.1 |
| 20260902141142 | 60 | 0 | 1.0 | 6.0 | 0.00 | 0.03 | 0.02 | 99 | 1019.1 |
| 20260902140417 | 60 | 163 | 1.0 | 6.0 | 0.00 | 0.04 | 0.02 | 99 | 1019.0 |
| 20260902135907 | 60 | 176 | 1.0 | 4.0 | 0.00 | 0.04 | 0.02 | 99 | 1018.9 |
| 20260902135401 | 60 | 178 | 1.0 | 4.0 | 0.00 | 0.05 | 0.02 | 99 | 1018.9 |
| 20260902134904 | 60 | 196 | 1.0 | 6.0 | 0.00 | 0.05 | 0.02 | 99 | 1018.8 |
| 20260902134620 | 60 | 215 | 2.0 | 6.0 | 0.00 | 0.06 | 0.02 | 99 | 1018.9 |
| 20260902133857 | 60 | 213 | 2.0 | 6.0 | 0.00 | 0.06 | 0.02 | 99 | 1018.9 |
| 20260902133619 | 60 | 201 | 3.0 | 6.0 | 0.00 | 0.07 | 0.02 | 99 | 1018.9 |
| 20260902132900 | 60 | 250 | 3.0 | 7.0 | 0.00 | 0.07 | 0.02 | 99 | 1018.9 |
| 20260902132355 | 60 | 177 | 3.0 | 7.0 | 0.00 | 0.07 | 0.02 | 99 | 1019.0 |
| 20260902131854 | 60 | 178 | 3.0 | 6.0 | 0.00 | 0.08 | 0.02 | 99 | 1019.1 |
| 20260902131357 | 60 | 241 | 3.0 | 6.0 | 0.00 | 0.08 | 0.02 | 99 | 1019.1 |
| 20260902130855 | 60 | 202 | 2.0 | 6.0 | 0.00 | 0.08 | 0.02 | 99 | 1018.9 |
| 20260902130618 | 60 | 217 | 3.0 | 8.0 | 0.00 | 0.09 | 0.02 | 99 | 1018.8 |
| 20260902125851 | 60 | 236 | 2.0 | 8.0 | 0.00 | 0.09 | 0.02 | 99 | 1018.8 |
| 20260902125354 | 60 | 193 | 1.0 | 4.0 | 0.00 | 0.09 | 0.02 | 99 | 1018.7 |
| 20260902124852 | 60 | 192 | 2.0 | 5.0 | 0.00 | 0.09 | 0.02 | 99 | 1018.7 |
| 20260902124351 | 60 | 218 | 3.0 | 9.0 | 0.00 | 0.09 | 0.02 | 99 | 1018.8 |
| 20260902124114 | 60 | 219 | 3.0 | 9.0 | 0.00 | 0.09 | 0.02 | 99 | 1018.7 |